College Station, TX

1:33 PM CDT on September 26, 2016 (GMT -0500)
Easterwood

Weather History for KCLL - April, 2014

Change the Weather History Date:

Monday, April 14, 2014

  Actual Average Record
Temperature  
Mean Temperature 59 °F 68 °F  
Max Temperature 74 °F 79 °F 90 °F (1925)
Min Temperature 43 °F 58 °F 34 °F (1928)
Degree Days  
Heating Degree Days 6 2  
Month to date heating degree days 34 33  
Since 1 July heating degree days 2027 1592  
Cooling Degree Days 0 5  
Month to date cooling degree days 63 55  
Year to date cooling degree days 107 142  
Growing Degree Days 8 (Base 50)    
Moisture  
Dew Point 53 °F    
Average Humidity 74    
Maximum Humidity 93    
Minimum Humidity 55    
Precipitation  
Precipitation 0.65 in 0.08 in 1.38 in (1991)
Month to date precipitation 1.22 1.11  
Year to date precipitation 5.01 10.37  
Sea Level Pressure  
Sea Level Pressure 29.90 in    
Wind  
Wind Speed 15 mph (NW)    
Max Wind Speed 32 mph    
Max Gust Speed 41 mph    
Visibility 7 miles    
Events Rain , Thunderstorm    
T = Trace of Precipitation, MM = Missing Value Source: NWS Daily Summary

Daily Weather History Graph

Daily Weather History Graph

Search for Another Location

Airport or City:

Trip Planner

Search our weather history database for the weather conditions in past years. The results will help you decide how hot, cold, wet, or windy it might be!

Date:

Astronomy

Apr. 14, 2014 Rise Set
Actual Time 6:59 AM CDT 7:52 PM CDT
Civil Twilight 6:34 AM CDT 8:17 PM CDT
Nautical Twilight 6:05 AM CDT 8:46 PM CDT
Astronomical Twilight 5:35 AM CDT 9:16 PM CDT
Moon 7:33 PM CDT (4/14) 6:28 AM CDT (4/14)
Length of Visible Light 13h 42m
Length of Day
12h 53m
Full, 100% of the Moon is Illuminated
Apr 14
Full
Apr 15
Full
Apr 22
Last Quarter
Apr 29
New
May 6
First Quarter

Hourly Weather History & Observations

Time (CDT) Temp. Windchill Dew Point Humidity Pressure Visibility Wind Dir Wind Speed Gust Speed Precip Events Conditions
12:13 AM 73.9 °F - 70.0 °F 87% 29.73 in 8.0 mi South 10.4 mph - N/A   Overcast
12:53 AM 73.9 °F - 70.0 °F 87% 29.69 in 9.0 mi South 13.8 mph - N/A   Overcast
1:53 AM 73.9 °F - 70.0 °F 87% 29.69 in 8.0 mi South 10.4 mph 21.9 mph N/A   Overcast
2:53 AM 73.9 °F - 70.0 °F 87% 29.68 in 8.0 mi South 9.2 mph - N/A   Overcast
3:17 AM 73.9 °F - 70.0 °F 87% 29.70 in 7.0 mi South 10.4 mph - N/A   Overcast
3:53 AM 73.4 °F - 69.8 °F 88% 29.69 in 7.0 mi South 8.1 mph - N/A   Overcast
4:04 AM 73.9 °F - 70.0 °F 87% 29.68 in 7.0 mi South 8.1 mph - N/A   Overcast
4:53 AM 73.9 °F - 70.0 °F 87% 29.68 in 7.0 mi South 5.8 mph - N/A   Overcast
5:34 AM 73.9 °F - 70.0 °F 87% 29.69 in 6.0 mi South 9.2 mph - N/A   Overcast
5:53 AM 73.9 °F - 70.0 °F 87% 29.68 in 6.0 mi South 6.9 mph - N/A   Overcast
6:05 AM 73.9 °F - 70.0 °F 87% 29.71 in 6.0 mi SSW 5.8 mph - N/A   Overcast
6:26 AM 73.0 °F - 70.0 °F 90% 29.74 in 6.0 mi West 4.6 mph - N/A   Overcast
6:53 AM 73.4 °F - 71.6 °F 94% 29.76 in 6.0 mi Calm Calm - N/A   Overcast
7:07 AM 72.0 °F - 69.1 °F 91% 29.77 in 5.0 mi WNW 15.0 mph - N/A   Overcast
7:13 AM 69.8 °F - 68.0 °F 94% 29.77 in 4.0 mi NW 12.7 mph - N/A Rain , Thunderstorm Light Rain
7:22 AM 68.0 °F - 66.0 °F 93% 29.78 in 5.0 mi NW 18.4 mph 24.2 mph 0.00 in Rain , Thunderstorm Light Thunderstorms and Rain
7:36 AM 62.1 °F - 61.0 °F 96% 29.81 in 2.5 mi NNW 17.3 mph 25.3 mph 0.06 in Rain , Thunderstorm Light Thunderstorms and Rain
7:42 AM 61.0 °F - 59.0 °F 93% 29.82 in 6.0 mi NNW 12.7 mph 23.0 mph 0.06 in Rain , Thunderstorm Light Rain
7:49 AM 59.0 °F - 57.2 °F 94% 29.82 in 6.0 mi NNW 18.4 mph 26.5 mph 0.06 in Rain Light Rain
7:53 AM 59.0 °F - 57.0 °F 93% 29.81 in 6.0 mi NNW 17.3 mph 26.5 mph 0.06 in Rain Light Rain
8:51 AM 53.6 °F - 50.0 °F 88% 29.87 in 10.0 mi North 18.4 mph 31.1 mph 0.00 in   Overcast
8:53 AM 53.1 °F - 50.0 °F 89% 29.87 in 10.0 mi North 20.7 mph 31.1 mph 0.00 in   Overcast
9:12 AM 52.0 °F - 48.0 °F 86% 29.89 in 10.0 mi NNW 24.2 mph 35.7 mph N/A   Overcast
9:53 AM 50.0 °F - 45.0 °F 83% 29.92 in 10.0 mi NNW 20.7 mph 27.6 mph N/A   Overcast
10:45 AM 48.0 °F - 43.0 °F 83% 29.97 in 10.0 mi NNW 18.4 mph 29.9 mph 0.00 in Rain , Thunderstorm Light Thunderstorms and Rain
10:53 AM 46.9 °F - 43.0 °F 86% 29.97 in 9.0 mi NNW 24.2 mph 32.2 mph 0.01 in Rain , Thunderstorm Light Thunderstorms and Rain
11:02 AM 46.0 °F 38.5 °F 43.0 °F 89% 29.94 in 1.8 mi North 19.6 mph 31.1 mph 0.09 in Rain , Thunderstorm Heavy Thunderstorms and Rain
11:09 AM 46.0 °F 39.3 °F 44.1 °F 93% 29.96 in 3.0 mi North 16.1 mph 28.8 mph 0.10 in Rain , Thunderstorm Light Thunderstorms and Rain
11:40 AM 46.0 °F 39.6 °F 43.0 °F 89% 30.03 in 9.0 mi NW 15.0 mph 29.9 mph 0.10 in Rain , Thunderstorm Light Rain
11:53 AM 46.0 °F 39.9 °F 43.0 °F 89% 30.02 in 10.0 mi North 13.8 mph 27.6 mph 0.11 in Rain , Thunderstorm Light Thunderstorms and Rain
12:07 PM 46.0 °F 39.6 °F 43.0 °F 89% 30.06 in 1.8 mi NW 15.0 mph 18.4 mph 0.13 in Rain , Thunderstorm Heavy Thunderstorms and Rain
12:14 PM 46.0 °F 37.4 °F 43.0 °F 89% 30.02 in 1.5 mi NNW 25.3 mph 31.1 mph 0.15 in Rain , Thunderstorm Thunderstorms and Rain
12:22 PM 46.0 °F 37.4 °F 43.0 °F 89% 29.99 in 2.5 mi NNW 25.3 mph 33.4 mph 0.21 in Rain , Thunderstorm Heavy Thunderstorms and Rain
12:35 PM 45.0 °F 36.9 °F 43.0 °F 93% 30.07 in 3.0 mi WNW 20.7 mph 32.2 mph 0.26 in Rain , Thunderstorm Thunderstorms and Rain
12:53 PM 44.6 °F 37.2 °F 42.8 °F 93% 30.02 in 3.0 mi NNW 17.3 mph 31.1 mph N/A Rain , Thunderstorm Heavy Rain
1:48 PM 46.4 °F 37.5 °F 42.8 °F 87% 29.99 in 10.0 mi NNW 27.6 mph 32.2 mph 0.13 in   Overcast
1:53 PM 46.0 °F 37.8 °F 43.0 °F 89% 29.98 in 10.0 mi NNW 23.0 mph 33.4 mph 0.13 in   Overcast
2:18 PM 46.9 °F - 43.0 °F 86% 29.98 in 10.0 mi NNW 21.9 mph 34.5 mph 0.00 in   Overcast
2:53 PM 51.1 °F - 43.0 °F 74% 29.99 in 10.0 mi NNW 25.3 mph 35.7 mph 0.02 in   Mostly Cloudy
3:22 PM 51.1 °F - 42.1 °F 71% 30.01 in 10.0 mi NNW 25.3 mph 38.0 mph N/A   Mostly Cloudy
3:53 PM 55.4 °F - 42.8 °F 63% 29.99 in 10.0 mi NNW 25.3 mph 34.5 mph N/A   Partly Cloudy
4:53 PM 55.9 °F - 41.0 °F 57% 30.01 in 10.0 mi North 24.2 mph 32.2 mph N/A   Partly Cloudy
5:53 PM 55.0 °F - 39.9 °F 57% 30.02 in 10.0 mi North 28.8 mph 36.8 mph N/A   Clear
6:53 PM 54.0 °F - 39.0 °F 57% 30.05 in 10.0 mi North 18.4 mph 29.9 mph N/A   Clear
7:53 PM 51.1 °F - 37.9 °F 61% 30.09 in 10.0 mi North 16.1 mph 24.2 mph N/A   Clear
8:53 PM 50.0 °F - 37.0 °F 61% 30.13 in 10.0 mi North 13.8 mph - N/A   Clear
9:53 PM 48.0 °F - 37.0 °F 66% 30.17 in 10.0 mi North 10.4 mph - N/A   Clear
10:53 PM 46.9 °F - 36.0 °F 66% 30.20 in 10.0 mi North 12.7 mph - N/A   Clear
11:53 PM 45.0 °F 40.1 °F 36.0 °F 71% 30.22 in 10.0 mi North 9.2 mph - N/A   Clear